Location: Basses Si�yes
(44.0835°N, 6.2037°E)
Time: 09:51:31
(UTC+00:00)

Cosmos 2219 - Pass Details

Date: 27 February 2020
Orbit: 832 x 862 km, 71.1° (Epoch: 08 April)

Event Time Altitude Azimuth Distance (km) Brightness Sun altitude
Rises 20:26:27 0° 327° (NNW) 3,443 7.1 -33.6°
Reaches altitude 10° 20:29:04 10° 320° (NW) 2,504 6.3 -34.1°
Enters shadow 20:34:09 37° 258° (WSW) 1,315 4.4 -34.9°
